Location: Unspecified
(40.7945°N, 0.0000°E)
Time: 21:05:35
(UTC+00:00)

Explorer 7 - Pass Details

Date: 23 June 2021
Orbit: 484 x 676 km, 50.3° (Epoch: 28 July)

Event Time Altitude Azimuth Distance (km) Brightness Sun altitude
Rises 20:48:31 0° 265° (W) 3,018 11.2 -11.6°
Reaches altitude 10° 20:51:02 10° 274° (W) 2,109 10.5 -11.9°
Maximum altitude 20:55:33 36° 341° (NNW) 1,064 8.9 -12.5°
Drops below altitude 10° 21:00:01 10° 49° (NE) 2,083 9.8 -13.1°
Sets 21:02:31 0° 58° (ENE) 2,976 10.5 -13.4°
